TimeCDT,TemperatureF,Dew PointF,Humidity,Sea Level PressureIn,VisibilityMPH,Wind Direction,Wind SpeedMPH,Gust SpeedMPH,PrecipitationIn,Events,Conditions,WindDirDegrees,DateUTC
12:00 AM,50.0,37.4,62,29.65,15.0,South,8.1,-,N/A,,Clear,170,2013-05-14 05:00:00
1:00 AM,50,38,52,29.63,15,SSE,8.1,,,,,160,2013-05-14 06:00:00
1:00 AM,50.0,37.4,62,29.63,15.0,SSE,8.1,-,N/A,,Clear,160,2013-05-14 06:00:00
2:00 AM,50.0,37.4,62,29.62,15.0,South,9.2,-,N/A,,Partly Cloudy,170,2013-05-14 07:00:00
3:00 AM,48.2,37.4,66,29.61,15.0,South,9.2,-,N/A,,Partly Cloudy,170,2013-05-14 08:00:00
4:00 AM,48.2,37.4,66,29.59,15.0,SSE,9.2,-,N/A,,Partly Cloudy,160,2013-05-14 09:00:00
5:00 AM,46.4,37.4,71,29.59,15.0,SSE,9.2,-,N/A,,Mostly Cloudy,160,2013-05-14 10:00:00
6:00 AM,48.2,37.4,66,29.57,15.0,SSE,10.4,-,N/A,,Overcast,150,2013-05-14 11:00:00
7:00 AM,48,38,60,29.59,15,South,8.1,,,,Overcast,170,2013-05-14 12:00:00
7:00 AM,48.2,39.2,71,29.59,15.0,South,6.9,-,N/A,,Overcast,170,2013-05-14 12:00:00
8:00 AM,50.0,39.2,66,29.57,12.0,South,10.4,-,N/A,,Overcast,170,2013-05-14 13:00:00
8:42 AM,51.8,41.0,67,29.55,15.0,SSW,12.7,18.4,N/A,Rain,Light Rain,200,2013-05-14 13:42:00
9:00 AM,53.6,42.8,67,29.54,15.0,South,10.4,-,N/A,Rain,Light Rain,190,2013-05-14 14:00:00
9:30 AM,55.4,44.6,67,29.53,15.0,SSW,12.7,19.6,N/A,,Mostly Cloudy,200,2013-05-14 14:30:00
10:00 AM,59.0,46.4,63,29.52,15.0,South,13.8,21.9,N/A,,Mostly Cloudy,190,2013-05-14 15:00:00
11:00 AM,64.4,51.8,64,29.48,15.0,South,9.2,-,N/A,,Mostly Cloudy,190,2013-05-14 16:00:00
12:00 PM,68.0,51.8,56,29.44,15.0,South,16.1,-,N/A,,Mostly Cloudy,190,2013-05-14 17:00:00
1:00 PM,69.8,51.8,53,29.40,15.0,SSW,15.0,26.5,N/A,,Mostly Cloudy,200,2013-05-14 18:00:00
2:00 PM,71.6,50.0,46,29.33,15.0,SSW,21.9,28.8,N/A,,Mostly Cloudy,200,2013-05-14 19:00:00
2:23 PM,71.6,50.0,46,29.32,10.0,SSW,17.3,31.1,N/A,Rain-Thunderstorm,Light Thunderstorms and Rain,210,2013-05-14 19:23:00
3:00 PM,62.6,59.0,88,29.34,15.0,SW,9.2,27.6,N/A,Thunderstorm,Thunderstorm,230,2013-05-14 20:00:00
3:17 PM,68.0,60.8,78,29.33,15.0,SW,12.7,19.6,N/A,,Scattered Clouds,230,2013-05-14 20:17:00
4:00 PM,73.4,44.6,36,29.33,15.0,WSW,24.2,33.4,N/A,,Mostly Cloudy,250,2013-05-14 21:00:00
5:00 PM,71.6,42.8,35,29.37,15.0,West,18.4,33.4,N/A,,Mostly Cloudy,270,2013-05-14 22:00:00
6:00 PM,68.0,44.6,43,29.39,15.0,West,13.8,23.0,N/A,,Mostly Cloudy,260,2013-05-14 23:00:00
7:00 PM,64,46,41,29.45,0,WNW,16.1,,,,Partly Cloudy,300,2013-05-15 00:00:00
7:00 PM,64.4,46.4,52,29.44,15.0,WNW,13.8,28.8,N/A,,Mostly Cloudy,300,2013-05-15 00:00:00
8:00 PM,59.0,48.2,67,29.50,15.0,NW,17.3,24.2,N/A,,Mostly Cloudy,310,2013-05-15 01:00:00
9:00 PM,55.4,46.4,72,29.56,15.0,NW,15.0,23.0,N/A,,Scattered Clouds,320,2013-05-15 02:00:00
10:00 PM,53.6,44.6,72,29.62,15.0,NW,10.4,-,N/A,,Partly Cloudy,310,2013-05-15 03:00:00
11:00 PM,53.6,44.6,72,29.64,15.0,WNW,8.1,-,N/A,,Partly Cloudy,290,2013-05-15 04:00:00